RYR989J EGCC-EIDW

Flight info

Callsign RYR989J
Flight time 0h 35m
Altitude 26000
Route EKLAD Y53 WAL L10 PENIL M144 BAGSO BAGSO4L
Aircraft B738/M-SDE2E3FGHIRWXY/LB1

Departure

Time 2026-05-07 17:08
Airport Manchester Airport (EGCC)

Arrival

Time 2026-05-07 17:43
Airport Dublin Airport (EIDW)
Time Latitude Longitude Altitude Speed Heading
2026-05-07 16:43 53.36037 -2.26885 254 ft 0 kts 313°
2026-05-07 16:55 53.36024 -2.26863 254 ft 4 kts 311°
2026-05-07 16:56 53.36007 -2.26830 254 ft 4 kts 295°
2026-05-07 16:56 53.36006 -2.26793 254 ft 4 kts 237°
2026-05-07 16:56 53.35991 -2.26832 254 ft 4 kts 235°
2026-05-07 16:57 53.35970 -2.26849 254 ft 4 kts 186°
2026-05-07 16:57 53.35958 -2.26846 254 ft 0 kts 169°
2026-05-07 16:59 53.35957 -2.26846 254 ft 1 kts 169°
2026-05-07 16:59 53.35939 -2.26837 254 ft 4 kts 153°
2026-05-07 16:59 53.35924 -2.26785 255 ft 2 kts 104°
2026-05-07 17:00 53.35922 -2.26772 255 ft 0 kts 107°
2026-05-07 17:03 53.35917 -2.26750 255 ft 6 kts 114°
2026-05-07 17:03 53.35880 -2.26701 261 ft 7 kts 161°
2026-05-07 17:03 53.35849 -2.26689 265 ft 7 kts 169°
2026-05-07 17:04 53.35798 -2.26674 269 ft 9 kts 170°
2026-05-07 17:04 53.35707 -2.26648 268 ft 17 kts 169°
2026-05-07 17:04 53.35570 -2.26646 262 ft 23 kts 205°
2026-05-07 17:04 53.35458 -2.26855 253 ft 24 kts 231°
2026-05-07 17:05 53.35372 -2.27035 246 ft 16 kts 230°
2026-05-07 17:05 53.35313 -2.27154 242 ft 13 kts 230°
2026-05-07 17:05 53.35223 -2.27226 234 ft 17 kts 191°
2026-05-07 17:05 53.35093 -2.27268 227 ft 20 kts 192°
2026-05-07 17:06 53.34998 -2.27343 224 ft 13 kts 230°
2026-05-07 17:06 53.34975 -2.27391 224 ft 0 kts 231°
2026-05-07 17:06 53.34958 -2.27426 224 ft 14 kts 231°
2026-05-07 17:07 53.34953 -2.27436 225 ft 0 kts 231°
2026-05-07 17:07 53.34920 -2.27504 222 ft 32 kts 231°
2026-05-07 17:08 53.34603 -2.28158 227 ft 107 kts 231°
2026-05-07 17:08 53.33994 -2.29385 281 ft 161 kts 229°
2026-05-07 17:08 53.33300 -2.30822 1190 ft 147 kts 229°
2026-05-07 17:08 53.32688 -2.32125 2139 ft 144 kts 227°
2026-05-07 17:09 53.32091 -2.33677 2497 ft 181 kts 252°
2026-05-07 17:09 53.32060 -2.35938 2818 ft 213 kts 275°
2026-05-07 17:09 53.32375 -2.38555 3075 ft 237 kts 279°
2026-05-07 17:09 53.32714 -2.41279 3673 ft 240 kts 273°
2026-05-07 17:10 53.32498 -2.44087 4075 ft 250 kts 249°
2026-05-07 17:10 53.31959 -2.46919 4725 ft 257 kts 249°
2026-05-07 17:10 53.31420 -2.49812 4980 ft 258 kts 250°
2026-05-07 17:10 53.30935 -2.52720 4993 ft 264 kts 260°
2026-05-07 17:11 53.31172 -2.55806 5615 ft 271 kts 282°
2026-05-07 17:11 53.31650 -2.58830 6632 ft 269 kts 281°
2026-05-07 17:11 53.32111 -2.61879 7489 ft 272 kts 281°
2026-05-07 17:11 53.32564 -2.64963 8331 ft 274 kts 280°
2026-05-07 17:12 53.33011 -2.68078 9170 ft 277 kts 280°
2026-05-07 17:12 53.33458 -2.71237 9994 ft 280 kts 279°
2026-05-07 17:12 53.33908 -2.74471 10485 ft 296 kts 279°
2026-05-07 17:12 53.34394 -2.78008 10701 ft 319 kts 279°
2026-05-07 17:13 53.34898 -2.81678 11266 ft 329 kts 280°
2026-05-07 17:13 53.35416 -2.85448 12018 ft 333 kts 279°
2026-05-07 17:13 53.35936 -2.89242 12830 ft 337 kts 279°
2026-05-07 17:13 53.36459 -2.93078 13711 ft 338 kts 279°
2026-05-07 17:14 53.36980 -2.96905 14650 ft 335 kts 279°
2026-05-07 17:14 53.37493 -3.00683 15665 ft 331 kts 280°
2026-05-07 17:14 53.37997 -3.04421 16658 ft 328 kts 280°
2026-05-07 17:14 53.38497 -3.08144 17549 ft 329 kts 280°
2026-05-07 17:15 53.39067 -3.11830 17938 ft 326 kts 287°
2026-05-07 17:15 53.40007 -3.15326 17994 ft 334 kts 298°
2026-05-07 17:15 53.41300 -3.18551 18010 ft 333 kts 303°
2026-05-07 17:15 53.42654 -3.21695 17996 ft 332 kts 303°
2026-05-07 17:16 53.44013 -3.24823 17996 ft 332 kts 303°
2026-05-07 17:16 53.45368 -3.27957 18000 ft 331 kts 303°
2026-05-07 17:16 53.46716 -3.31096 17994 ft 331 kts 303°
2026-05-07 17:16 53.48056 -3.34237 17992 ft 331 kts 303°
2026-05-07 17:17 53.49395 -3.37388 17988 ft 331 kts 302°
2026-05-07 17:17 53.50729 -3.40540 17985 ft 331 kts 302°
2026-05-07 17:17 53.52063 -3.43697 17986 ft 332 kts 302°
2026-05-07 17:17 53.53398 -3.46862 17988 ft 332 kts 302°
2026-05-07 17:18 53.54733 -3.50031 17993 ft 332 kts 302°
2026-05-07 17:18 53.56067 -3.53202 17990 ft 332 kts 302°
2026-05-07 17:18 53.57401 -3.56375 17989 ft 332 kts 302°
2026-05-07 17:18 53.58754 -3.59598 17986 ft 333 kts 302°
2026-05-07 17:19 53.60085 -3.62783 17980 ft 332 kts 301°
2026-05-07 17:19 53.61151 -3.66198 17985 ft 328 kts 288°
2026-05-07 17:19 53.61761 -3.69878 17988 ft 325 kts 276°
2026-05-07 17:19 53.61979 -3.73652 17995 ft 323 kts 271°
2026-05-07 17:20 53.62120 -3.77427 17981 ft 323 kts 271°
2026-05-07 17:20 53.62257 -3.81207 17983 ft 323 kts 271°
2026-05-07 17:20 53.62405 -3.84993 17985 ft 323 kts 271°
2026-05-07 17:20 53.62561 -3.88770 17984 ft 323 kts 271°
2026-05-07 17:21 53.62718 -3.92550 17986 ft 323 kts 271°
2026-05-07 17:21 53.62874 -3.96326 17980 ft 323 kts 271°
2026-05-07 17:21 53.63026 -4.00108 17979 ft 323 kts 271°
2026-05-07 17:21 53.63174 -4.03885 17983 ft 323 kts 271°
2026-05-07 17:22 53.63321 -4.07656 17988 ft 323 kts 271°
2026-05-07 17:22 53.63467 -4.11441 17986 ft 323 kts 271°
2026-05-07 17:22 53.63610 -4.15221 17984 ft 323 kts 271°
2026-05-07 17:22 53.63753 -4.18999 17989 ft 323 kts 271°
2026-05-07 17:23 53.63894 -4.22780 17980 ft 323 kts 271°
2026-05-07 17:23 53.64034 -4.26553 17978 ft 323 kts 271°
2026-05-07 17:23 53.64172 -4.30328 17980 ft 322 kts 271°
2026-05-07 17:23 53.64309 -4.34096 17980 ft 322 kts 271°
2026-05-07 17:24 53.64443 -4.37860 17980 ft 322 kts 271°
2026-05-07 17:24 53.64575 -4.41578 17965 ft 313 kts 271°
2026-05-07 17:24 53.64702 -4.45220 17716 ft 311 kts 270°
2026-05-07 17:24 53.64828 -4.48826 17466 ft 306 kts 270°
2026-05-07 17:25 53.64951 -4.52396 17147 ft 304 kts 270°
2026-05-07 17:25 53.65072 -4.55931 16837 ft 301 kts 270°
2026-05-07 17:25 53.65193 -4.59494 16519 ft 299 kts 270°
2026-05-07 17:25 53.65310 -4.62939 16213 ft 297 kts 270°
2026-05-07 17:26 53.65426 -4.66407 15905 ft 295 kts 270°
2026-05-07 17:26 53.65542 -4.69894 15599 ft 294 kts 270°
2026-05-07 17:26 53.65655 -4.73324 15292 ft 292 kts 270°
2026-05-07 17:26 53.65767 -4.76731 14988 ft 291 kts 270°
2026-05-07 17:27 53.65877 -4.80123 14684 ft 289 kts 270°
2026-05-07 17:27 53.65985 -4.83499 14383 ft 288 kts 270°
2026-05-07 17:27 53.66095 -4.86866 14078 ft 287 kts 270°
2026-05-07 17:27 53.66207 -4.90218 13766 ft 286 kts 270°
2026-05-07 17:28 53.66318 -4.93559 13431 ft 285 kts 270°
2026-05-07 17:28 53.66428 -4.96894 13116 ft 284 kts 270°
2026-05-07 17:28 53.66537 -5.00202 12807 ft 282 kts 270°
2026-05-07 17:28 53.66644 -5.03493 12511 ft 280 kts 270°
2026-05-07 17:29 53.66750 -5.06758 12221 ft 278 kts 270°
2026-05-07 17:29 53.66853 -5.10003 11925 ft 276 kts 270°
2026-05-07 17:29 53.66954 -5.13228 11639 ft 275 kts 270°
2026-05-07 17:29 53.67053 -5.16435 11350 ft 273 kts 270°
2026-05-07 17:30 53.67147 -5.19616 11069 ft 271 kts 270°
2026-05-07 17:30 53.67239 -5.22792 10774 ft 270 kts 270°
2026-05-07 17:30 53.67330 -5.25955 10492 ft 269 kts 270°
2026-05-07 17:30 53.67420 -5.29098 10212 ft 268 kts 270°
2026-05-07 17:31 53.67509 -5.32206 10066 ft 261 kts 270°
2026-05-07 17:31 53.67596 -5.35227 9870 ft 257 kts 270°
2026-05-07 17:31 53.67680 -5.38230 9586 ft 256 kts 269°
2026-05-07 17:31 53.67763 -5.41211 9321 ft 254 kts 269°
2026-05-07 17:32 53.67843 -5.44171 9039 ft 252 kts 270°
2026-05-07 17:32 53.67921 -5.47102 8794 ft 248 kts 268°
2026-05-07 17:32 53.67616 -5.49910 8515 ft 243 kts 242°
2026-05-07 17:32 53.67037 -5.51539 8380 ft 239 kts 232°
2026-05-07 17:33 53.65917 -5.53603 8109 ft 238 kts 224°
2026-05-07 17:33 53.64716 -5.55530 7858 ft 237 kts 223°
2026-05-07 17:33 53.63513 -5.57424 7599 ft 236 kts 223°
2026-05-07 17:33 53.62320 -5.59309 7370 ft 234 kts 223°
2026-05-07 17:34 53.61136 -5.61188 7119 ft 233 kts 223°
2026-05-07 17:34 53.59956 -5.63069 6860 ft 234 kts 223°
2026-05-07 17:34 53.58765 -5.64975 6610 ft 239 kts 223°
2026-05-07 17:34 53.57546 -5.66930 6364 ft 246 kts 223°
2026-05-07 17:35 53.56313 -5.68910 6084 ft 245 kts 223°
2026-05-07 17:35 53.55087 -5.70878 5830 ft 242 kts 223°
2026-05-07 17:35 53.53876 -5.72824 5566 ft 240 kts 223°
2026-05-07 17:35 53.52676 -5.74752 5369 ft 236 kts 223°
2026-05-07 17:36 53.51492 -5.76654 5106 ft 235 kts 223°
2026-05-07 17:36 53.50313 -5.78546 4862 ft 234 kts 223°
2026-05-07 17:36 53.49152 -5.80409 4730 ft 227 kts 223°
2026-05-07 17:36 53.48025 -5.82215 4621 ft 220 kts 223°
2026-05-07 17:37 53.46934 -5.83963 4512 ft 213 kts 223°
2026-05-07 17:37 53.45893 -5.85632 4443 ft 201 kts 223°
2026-05-07 17:37 53.44917 -5.87195 4360 ft 189 kts 223°
2026-05-07 17:37 53.43970 -5.88706 4264 ft 188 kts 223°
2026-05-07 17:38 53.43009 -5.90241 4052 ft 194 kts 223°
2026-05-07 17:38 53.42022 -5.91815 3864 ft 197 kts 223°
2026-05-07 17:38 53.41033 -5.93395 3639 ft 196 kts 224°
2026-05-07 17:38 53.40385 -5.95350 3393 ft 198 kts 260°
2026-05-07 17:39 53.40582 -5.97610 3218 ft 193 kts 276°
2026-05-07 17:39 53.40729 -5.99771 3046 ft 181 kts 268°
2026-05-07 17:39 53.40816 -6.01823 2957 ft 175 kts 269°
2026-05-07 17:39 53.40912 -6.03838 2736 ft 171 kts 269°
2026-05-07 17:40 53.41012 -6.05775 2516 ft 161 kts 269°
2026-05-07 17:40 53.41107 -6.07582 2311 ft 148 kts 269°
2026-05-07 17:40 53.41195 -6.09265 2107 ft 144 kts 269°
2026-05-07 17:40 53.41280 -6.10923 1904 ft 141 kts 268°
2026-05-07 17:41 53.41366 -6.12580 1713 ft 141 kts 268°
2026-05-07 17:41 53.41453 -6.14247 1501 ft 145 kts 268°
2026-05-07 17:41 53.41543 -6.15939 1318 ft 147 kts 268°
2026-05-07 17:41 53.41632 -6.17629 1110 ft 144 kts 266°
2026-05-07 17:42 53.41719 -6.19301 920 ft 146 kts 269°
2026-05-07 17:42 53.41807 -6.21040 720 ft 153 kts 271°
2026-05-07 17:42 53.41910 -6.22865 559 ft 156 kts 272°
2026-05-07 17:42 53.42001 -6.24718 296 ft 156 kts 273°
2026-05-07 17:43 53.42100 -6.26471 211 ft 138 kts 276°
2026-05-07 17:43 53.42174 -6.27768 212 ft 53 kts 274°
2026-05-07 17:43 53.42210 -6.28134 220 ft 22 kts 298°
2026-05-07 17:43 53.42283 -6.28304 215 ft 13 kts 322°
2026-05-07 17:44 53.42360 -6.28296 211 ft 12 kts 50°
2026-05-07 17:44 53.42368 -6.28156 210 ft 12 kts 95°
2026-05-07 17:44 53.42360 -6.28014 213 ft 12 kts 96°
2026-05-07 17:44 53.42352 -6.27878 215 ft 12 kts 95°
2026-05-07 17:45 53.42346 -6.27746 214 ft 11 kts 93°
2026-05-07 17:45 53.42338 -6.27617 215 ft 11 kts 97°
2026-05-07 17:45 53.42330 -6.27492 210 ft 11 kts 96°
2026-05-07 17:45 53.42325 -6.27366 210 ft 12 kts 94°
2026-05-07 17:46 53.42317 -6.27216 210 ft 14 kts 96°
2026-05-07 17:46 53.42307 -6.27045 220 ft 15 kts 95°
2026-05-07 17:46 53.42297 -6.26878 210 ft 14 kts 95°
2026-05-07 17:46 53.42289 -6.26720 210 ft 13 kts 94°
2026-05-07 17:47 53.42281 -6.26569 210 ft 13 kts 96°
2026-05-07 17:47 53.42273 -6.26422 210 ft 13 kts 95°
2026-05-07 17:47 53.42263 -6.26266 216 ft 14 kts 96°
2026-05-07 17:47 53.42256 -6.26096 210 ft 14 kts 91°
2026-05-07 17:48 53.42286 -6.25937 215 ft 15 kts 55°
2026-05-07 17:48 53.42358 -6.25805 214 ft 17 kts 47°
2026-05-07 17:48 53.42444 -6.25662 213 ft 18 kts 45°
2026-05-07 17:48 53.42528 -6.25513 210 ft 17 kts 47°
2026-05-07 17:49 53.42612 -6.25371 214 ft 17 kts 45°
2026-05-07 17:49 53.42692 -6.25235 211 ft 16 kts 46°
2026-05-07 17:49 53.42767 -6.25106 210 ft 15 kts 45°
2026-05-07 17:49 53.42841 -6.25008 211 ft 13 kts 42°
2026-05-07 17:50 53.42902 -6.24899 210 ft 11 kts 47°
2026-05-07 17:50 53.42938 -6.24822 219 ft 8 kts 70°
2026-05-07 17:50 53.42957 -6.24758 215 ft 7 kts 15°
2026-05-07 17:50 53.42985 -6.24749 210 ft 1 kts
2026-05-07 17:51 53.42993 -6.24748 210 ft 1 kts
2026-05-07 17:51 53.42996 -6.24748 210 ft 0 kts